When you browse on this site, cookies collect data to enhance your experience and personalize the content and advertising you see.
Visit our Privacy Policy to learn more. By continuing to use the site, you agree to this use of cookies and data.

Hourly Weather Muyinga

Today, 18 September, Friday

Time Temperature Precipitation Wind Pressure Humidity
00:00 +17°C° 0 mm 0 mps 626 mmHg 65%
01:00 +18°C° 0 mm 1 mps 626 mmHg 67%
02:00 +18°C° 0 mm 1 mps 626 mmHg 69%
03:00 +16°C° 0 mm 1 mps 626 mmHg 71%
04:00 +16°C° 0 mm 1 mps 626 mmHg 72%
05:00 +15°C° 0 mm 0 mps 626 mmHg 74%
06:00 +19°C° 0 mm 1 mps 628 mmHg 63%
07:00 +21°C° 0 mm 2 mps 629 mmHg 52%
08:00 +25°C° 0 mm 3 mps 631 mmHg 42%
09:00 +28°C° 0 mm 3 mps 631 mmHg 35%
10:00 +30°C° 0 mm 3 mps 632 mmHg 29%
11:00 +33°C° 0 mm 4 mps 632 mmHg 22%
12:00 +33°C° 0 mm 4 mps 631 mmHg 21%
13:00 +34°C° 0 mm 3 mps 630 mmHg 20%
14:00 +34°C° 0 mm 4 mps 630 mmHg 19%
15:00 +33°C° 0 mm 3 mps 629 mmHg 21%
16:00 +31°C° 0 mm 3 mps 629 mmHg 22%
17:00 +30°C° 0 mm 2 mps 628 mmHg 24%
18:00 +28°C° 0 mm 2 mps 628 mmHg 28%
19:00 +26°C° 0 mm 2 mps 628 mmHg 31%
20:00 +24°C° 0 mm 2 mps 628 mmHg 35%
21:00 +23°C° 0 mm 1 mps 628 mmHg 37%
22:00 +22°C° 0 mm 1 mps 628 mmHg 39%
23:00 +19°C° 0 mm 0 mps 627 mmHg 41%

Tomorrow, 19 September, Saturday

Time Temperature Precipitation Wind Pressure Humidity
00:00 +18°C° 0 mm 0 mps 627 mmHg 44%
01:00 +17°C° 0 mm 0 mps 627 mmHg 46%
02:00 +16°C° 0 mm 0 mps 626 mmHg 49%
03:00 +16°C° 0 mm 0 mps 626 mmHg 51%
04:00 +15°C° 0 mm 0 mps 626 mmHg 54%
05:00 +15°C° 0 mm 0 mps 626 mmHg 57%
06:00 +19°C° 0 mm 1 mps 628 mmHg 48%
07:00 +21°C° 0 mm 2 mps 629 mmHg 40%
08:00 +24°C° 0 mm 3 mps 631 mmHg 32%
09:00 +27°C° 0 mm 3 mps 631 mmHg 29%
10:00 +29°C° 0 mm 3 mps 631 mmHg 25%
11:00 +31°C° 0 mm 3 mps 631 mmHg 22%
12:00 +33°C° 0 mm 3 mps 631 mmHg 20%
13:00 +34°C° 0 mm 3 mps 630 mmHg 19%
14:00 +35°C° 0 mm 3 mps 629 mmHg 17%
15:00 +34°C° 0 mm 3 mps 629 mmHg 17%
16:00 +33°C° 0 mm 3 mps 628 mmHg 18%
17:00 +31°C° 0 mm 3 mps 627 mmHg 18%
18:00 +29°C° 0 mm 2 mps 627 mmHg 22%
19:00 +26°C° 0 mm 2 mps 627 mmHg 27%
20:00 +23°C° 0 mm 1 mps 627 mmHg 31%
21:00 +22°C° 0 mm 1 mps 627 mmHg 34%
22:00 +21°C° 0 mm 1 mps 627 mmHg 38%
23:00 +18°C° 0 mm 0 mps 627 mmHg 42%

Day after tomorrow, 20 September, Sunday

Time Temperature Precipitation Wind Pressure Humidity
00:00 +17°C° 0 mm 0 mps 626 mmHg 43%
01:00 +17°C° 0 mm 0 mps 626 mmHg 44%
02:00 +16°C° 0 mm 0 mps 625 mmHg 45%
03:00 +16°C° 0 mm 0 mps 626 mmHg 44%
04:00 +17°C° 0 mm 0 mps 626 mmHg 44%
05:00 +17°C° 0 mm 0 mps 626 mmHg 44%
06:00 +21°C° 0 mm 1 mps 628 mmHg 41%
07:00 +23°C° 0 mm 1 mps 629 mmHg 38%
08:00 +25°C° 0 mm 2 mps 630 mmHg 35%
09:00 +28°C° 0 mm 2 mps 631 mmHg 31%
10:00 +30°C° 0 mm 2 mps 631 mmHg 27%
11:00 +32°C° 0 mm 2 mps 632 mmHg 23%
12:00 +32°C° 0 mm 2 mps 630 mmHg 23%
13:00 +32°C° 0 mm 2 mps 629 mmHg 23%
14:00 +32°C° 0 mm 2 mps 628 mmHg 23%
15:00 +31°C° 0 mm 2 mps 628 mmHg 24%
16:00 +30°C° 0 mm 2 mps 627 mmHg 26%
17:00 +29°C° 0 mm 2 mps 627 mmHg 28%
18:00 +27°C° 0 mm 1 mps 627 mmHg 32%
19:00 +26°C° 0 mm 1 mps 627 mmHg 36%
20:00 +24°C° 0 mm 1 mps 627 mmHg 40%
21:00 +23°C° 0 mm 1 mps 627 mmHg 43%
22:00 +20°C° 0 mm 0 mps 627 mmHg 46%
23:00 +19°C° 0 mm 0 mps 627 mmHg 49%

21 September, Monday

Time Temperature Precipitation Wind Pressure Humidity
00:00 +18°C° 0 mm 0 mps 626 mmHg 51%
01:00 +18°C° 0 mm 0 mps 626 mmHg 53%
02:00 +17°C° 0 mm 0 mps 625 mmHg 55%
03:00 +17°C° 0 mm 0 mps 626 mmHg 56%
04:00 +17°C° 0 mm 0 mps 626 mmHg 58%
05:00 +17°C° 0 mm 0 mps 626 mmHg 59%
06:00 +21°C° 0 mm 1 mps 627 mmHg 55%
07:00 +22°C° 0 mm 1 mps 628 mmHg 51%
08:00 +24°C° 0 mm 1 mps 630 mmHg 46%
09:00 +27°C° 0 mm 1 mps 630 mmHg 40%
10:00 +30°C° 0 mm 2 mps 631 mmHg 33%
11:00 +34°C° 0 mm 2 mps 632 mmHg 26%
12:00 +32°C° 0 mm 2 mps 630 mmHg 27%
13:00 +31°C° 0 mm 3 mps 629 mmHg 28%
14:00 +30°C° 0 mm 3 mps 628 mmHg 29%
15:00 +30°C° 0 mm 3 mps 628 mmHg 30%
16:00 +29°C° 0 mm 3 mps 628 mmHg 31%
17:00 +29°C° 0 mm 2 mps 628 mmHg 33%
18:00 +27°C° 0.1 mm 2 mps 628 mmHg 37%
19:00 +25°C° 0.1 mm 1 mps 628 mmHg 42%
20:00 +24°C° 0.1 mm 1 mps 628 mmHg 47%
21:00 +23°C° 0 mm 1 mps 628 mmHg 51%
22:00 +22°C° 0 mm 1 mps 628 mmHg 56%
23:00 +18°C° 0 mm 0 mps 628 mmHg 61%

22 September, Tuesday

Time Temperature Precipitation Wind Pressure Humidity
00:00 +20°C° 0 mm 1 mps 627 mmHg 62%
01:00 +20°C° 0 mm 1 mps 627 mmHg 63%
02:00 +20°C° 0 mm 1 mps 627 mmHg 64%
03:00 +19°C° 0 mm 1 mps 627 mmHg 66%
04:00 +19°C° 0 mm 1 mps 627 mmHg 67%
05:00 +19°C° 0 mm 1 mps 627 mmHg 69%
06:00 +21°C° 0 mm 1 mps 628 mmHg 62%
07:00 +23°C° 0 mm 1 mps 629 mmHg 55%
08:00 +25°C° 0 mm 2 mps 631 mmHg 49%
09:00 +26°C° 0 mm 2 mps 631 mmHg 44%
10:00 +28°C° 0 mm 3 mps 631 mmHg 40%
11:00 +29°C° 0 mm 3 mps 631 mmHg 35%
12:00 +29°C° 0 mm 3 mps 630 mmHg 34%
13:00 +30°C° 0 mm 3 mps 629 mmHg 32%
14:00 +30°C° 0 mm 3 mps 628 mmHg 31%
15:00 +30°C° 0 mm 3 mps 628 mmHg 31%
16:00 +30°C° 0 mm 3 mps 628 mmHg 31%
17:00 +29°C° 0 mm 3 mps 628 mmHg 31%
18:00 +27°C° 0 mm 2 mps 628 mmHg 36%
19:00 +25°C° 0 mm 1 mps 628 mmHg 41%
20:00 +23°C° 0 mm 1 mps 628 mmHg 46%
21:00 +20°C° 0 mm 0 mps 628 mmHg 50%
22:00 +19°C° 0 mm 0 mps 628 mmHg 54%
23:00 +18°C° 0 mm 0 mps 628 mmHg 58%

23 September, Wednesday

Time Temperature Precipitation Wind Pressure Humidity
00:00 +18°C° 0 mm 0 mps 628 mmHg 60%
01:00 +17°C° 0 mm 0 mps 627 mmHg 62%
02:00 +17°C° 0 mm 0 mps 627 mmHg 64%
03:00 +17°C° 0 mm 0 mps 627 mmHg 62%
04:00 +19°C° 0 mm 1 mps 628 mmHg 61%
05:00 +20°C° 0 mm 1 mps 628 mmHg 60%
06:00 +21°C° 0 mm 1 mps 629 mmHg 55%
07:00 +21°C° 0 mm 2 mps 630 mmHg 50%
08:00 +22°C° 0 mm 3 mps 631 mmHg 45%
09:00 +26°C° 0 mm 3 mps 631 mmHg 39%
10:00 +28°C° 0 mm 3 mps 631 mmHg 33%
11:00 +30°C° 0 mm 3 mps 632 mmHg 27%
12:00 +31°C° 0 mm 3 mps 631 mmHg 26%
13:00 +31°C° 0 mm 3 mps 630 mmHg 24%
14:00 +31°C° 0 mm 3 mps 629 mmHg 23%
15:00 +31°C° 0 mm 3 mps 628 mmHg 24%
16:00 +30°C° 0 mm 3 mps 628 mmHg 25%
17:00 +30°C° 0 mm 3 mps 628 mmHg 26%
18:00 +28°C° 0 mm 2 mps 628 mmHg 29%
19:00 +25°C° 0 mm 1 mps 628 mmHg 32%
20:00 +21°C° 0 mm 0 mps 628 mmHg 36%
21:00 +20°C° 0 mm 0 mps 628 mmHg 40%
22:00 +19°C° 0 mm 0 mps 628 mmHg 43%
23:00 +18°C° 0 mm 0 mps 628 mmHg 47%
Show more